Location: Be?chatów
(51.3665°N, 19.3745°E)
Time: 17:50:23
(UTC+00:00)

Cosmos 2219 Rocket - Pass Details

Date: 19 May 2025
Orbit: 828 x 844 km, 71.0° (Epoch: 20 June)

Event Time Altitude Azimuth Distance (km) Brightness Sun altitude
Rises 20:36:17 0° 329° (NNW) 3,403 7.4 -13.8°
Reaches altitude 10° 20:39:33 10° 348° (NNW) 2,462 5.9 -14.0°
Maximum altitude 20:43:23 18° 31° (NNE) 1,938 4.5 -14.3°
Drops below altitude 10° 20:47:11 10° 74° (ENE) 2,449 4.5 -14.6°
Sets 20:50:25 0° 93° (E) 3,376 5.0 -14.8°
